EHI
1 1 1 0 0 0 0 0 0 1 0 0 0 0 0 0 0 0 0 0 0 0 0 0 0 0 0 0 0 0 0 0 0 0 0 0 0 0 0 0 0 0 0
0 0 0 0 0 0 0 0 0 1 0 0 0 0 0 0 0 0 0 0 0 0 0 0 0 0 0 0 0 0 0 0 0 0 0 0 0 0 0 0 0 0 0
0 0 0 0 0 0 0 1 1 1 0 0 0 0 0 0 0 0 0 0 0 0 0 0 0 0 0 0 0 0 0 0 0 0 0 0 0 0 0 0 0 0 0
1 2 2 2 1 0 0 2 3 2 1 0 0 0 0 0 0 0 0 0 0 0 0 1 1 1 0 0 0 0 0 0 0 0 0 0 0 0 0 0 0 0 0
2 3 4 5 3 1 1 1 2 2 2 1 0 0 0 0 0 0 0 0 0 0 0 1 2 1 0 0 0 0 0 0 0 0 0 0 0 0 0 0 0 0 0
1 2 4 5 5 4 2 1 0 1 3 3 2 1 1 0 0 0 0 0 0 0 0 0 1 1 0 0 0 0 0 0 0 0 0 0 0 0 0 0 0 0 0
0 0 1 3 5 5 3 2 1 2 3 5 5 3 1 0 0 0 0 0 0 0 0 0 0 0 0 0 0 0 0 0 0 0 0 0 0 0 0 0 0 0 0
0 0 0 1 4 5 5 4 3 3 3 5 5 3 1 0 0 0 0 0 0 0 0 0 0 0 0 0 0 0 0 0 0 0 0 0 0 0 0 0 0 0 0
0 0 0 1 3 5 5 4 4 3 2 2 2 1 0 1 1 1 0 0 0 0 0 0 0 0 0 0 0 0 0 0 0 0 0 0 0 0 0 0 0 0 0
0 0 0 0 1 3 3 3 3 3 1 0 0 0 0 1 2 2 1 0 1 1 1 1 0 0 0 0 0 0 0 0 0 0 0 0 0 0 0 0 0 0 0
0 0 0 0 0 1 1 1 2 2 1 0 0 0 0 1 1 1 1 0 1 2 2 2 2 1 1 1 0 0 0 0 0 0 0 0 0 0 0 0 0 0 0
0 0 0 0 0 0 0 0 1 1 1 0 0 0 0 0 0 0 0 0 1 2 3 3 4 3 3 2 1 0 0 0 0 0 0 0 0 0 0 0 0 0 0
0 0 0 0 0 0 0 0 0 0 0 0 0 0 0 0 0 0 0 0 0 1 2 2 4 4 4 4 2 0 0 0 0 0 0 0 0 0 0 0 0 0 0
0 0 0 0 0 0 0 0 0 0 0 0 0 0 0 0 0 0 0 0 0 0 0 1 2 3 4 4 2 0 0 0 0 0 0 0 0 0 0 0 0 0 0
0 0 0 0 0 0 0 0 0 0 0 0 0 0 0 0 0 0 0 0 0 0 0 0 1 2 3 3 1 0 0 0 0 0 0 0 0 0 0 0 0 0 0
0 0 0 0 0 0 0 0 0 0 0 0 0 0 0 0 0 0 0 0 0 0 0 0 0 1 1 1 0 0 0 0 0 0 0 0 0 0 0 0 0 0 0
0 0 0 0 0 0 0 0 0 0 0 0 0 0 0 0 0 0 0 0 0 0 0 0 0 0 0 0 0 1 1 1 0 0 0 0 0 0 0 0 0 0 0
0 0 0 0 0 0 0 0 0 0 0 0 0 0 0 0 0 0 0 0 0 0 0 0 0 0 0 0 1 1 1 1 1 0 0 0 0 0 0 0 0 0 0
0 0 0 0 0 0 0 0 0 0 0 0 0 0 0 0 0 0 0 0 0 0 0 0 0 0 0 0 0 0 1 2 1 0 0 0 0 0 0 0 0 0 0
0 0 0 0 0 0 0 0 0 0 0 0 0 0 0 0 0 0 0 0 0 0 0 0 0 0 1 0 0 0 1 2 1 0 0 0 0 0 0 0 0 0 0
0 0 0 0 0 0 0 0 0 0 0 0 0 0 0 0 0 0 0 0 0 1 0 0 0 0 0 0 0 0 0 1 1 0 0 0 0 0 0 0 0 0 0
0 0 0 0 0 0 0 0 0 0 0 0 0 0 0 0 0 0 0 0 0 0 0 0 0 0 0 0 0 0 0 0 0 0 0 0 0 0 0 0 0 0 0
0 0 0 0 0 0 0 0 0 0 0 0 0 0 0 0 0 0 0 0 0 0 0 0 0 0 0 0 0 0 0 0 0 0 0 0 0 0 0 0 0 0 0
0 0 0 0 0 0 0 0 0 0 0 0 0 0 0 0 0 0 0 0 0 0 0 0 0 0 0 0 0 0 0 0 1 0 0 0 0 0 0 0 0 0 0
0 0 0 0 0 0 0 0 0 0 0 0 0 0 0 0 0 0 0 0 0 0 0 0 0 0 0 0 0 0 0 0 0 0 0 0 0 0 0 0 0 0 0
0 0 0 0 0 0 0 0 0 0 0 0 0 0 0 0 0 0 0 0 0 0 0 0 0 0 0 0 0 0 0 0 0 0 0 0 0 0 0 0 0 0 0
Wind_Speed
6 6 5 4 6 6 6 7 8 8 8 8 7 8 8 8 7 6 4 7 6 6 7 8 7 7 7 6 7 7 8 8 8 8 9 8 8 8 8 8 8 7 7
6 6 6 5 5 6 6 6 8 6 6 6 7 8 8 8 8 7 6 7 9 8 8 8 8 9 8 8 8 8 8 8 8 9 9 8 8 8 8 8 7 7 6
7 7 6 6 5 6 7 6 7 5 6 6 8 8 8 8 8 8 7 6 7 11 9 9 9 9 9 9 9 9 9 9 9 9 9 9 9 8 8 7 7 6 5
8 6 6 6 6 5 5 5 5 5 6 6 6 6 7 7 10 9 8 8 6 6 10 10 8 9 10 10 9 10 9 9 9 9 9 9 9 9 8 7 7 6 6
7 7 6 6 6 5 5 6 5 5 6 6 5 5 6 7 8 8 10 10 8 7 6 11 10 8 9 10 10 10 11 11 10 10 9 9 9 9 9 8 7 7 6
7 7 6 6 6 5 5 5 6 6 5 5 5 5 6 7 7 8 9 8 8 10 8 8 9 10 10 10 10 11 11 12 11 11 11 10 10 9 9 9 8 7 7
6 7 6 6 5 6 6 7 6 7 5 4 4 4 5 7 8 7 7 8 9 9 9 9 7 7 8 12 10 11 12 12 12 12 12 12 11 10 10 9 9 8 7
6 6 6 6 5 6 7 7 7 5 5 5 4 3 3 5 7 8 7 8 9 8 9 10 10 9 7 8 10 12 10 11 12 12 12 12 11 11 11 10 9 9 8
5 5 6 6 6 6 6 6 7 8 6 6 6 4 4 5 4 6 10 9 9 7 8 9 10 10 9 7 8 13 11 9 11 12 12 12 12 12 11 11 10 9 8
5 5 5 5 6 5 6 7 7 6 7 6 5 5 4 1 3 4 6 9 10 9 9 8 9 9 9 8 6 8 13 11 11 12 13 12 12 13 12 12 11 10 9
5 5 5 5 5 5 6 7 7 7 7 7 6 5 5 4 5 4 4 5 7 8 9 9 8 8 8 8 7 9 13 12 11 11 12 12 12 13 12 12 11 11 10
4 6 5 5 5 5 6 6 7 8 7 8 7 6 6 6 6 5 5 4 5 6 8 7 7 7 7 7 8 9 12 12 11 10 10 10 11 12 12 12 11 11 10
5 6 6 5 5 5 5 6 6 7 8 9 8 7 7 8 5 5 5 4 4 3 5 6 7 7 7 7 6 11 11 11 11 10 10 9 9 9 11 11 11 11 10
6 7 6 6 5 5 5 5 5 6 6 8 9 9 7 7 7 6 6 5 4 4 5 6 5 7 7 7 6 10 10 12 11 11 10 10 9 8 8 9 9 9 9
6 7 7 6 6 5 5 4 4 5 5 6 7 8 7 6 6 6 6 5 6 6 6 6 5 6 6 5 7 8 8 12 12 11 11 10 10 9 8 8 7 7 6
8 8 7 7 6 5 5 4 3 4 4 5 5 7 7 6 6 6 6 6 5 5 5 4 4 4 5 6 7 8 7 11 12 11 11 10 10 9 9 8 8 7 6
8 8 8 7 6 6 5 4 4 4 4 4 5 6 7 7 5 5 6 6 6 5 6 4 3 4 6 7 6 6 6 7 8 10 10 10 10 9 9 9 8 8 7
8 8 8 8 7 6 6 5 5 4 4 4 4 5 6 5 7 5 5 7 6 6 6 6 4 4 5 6 6 7 6 5 5 9 10 9 9 9 9 8 8 8 8
8 8 8 8 7 7 6 6 5 4 3 3 3 3 4 5 6 5 6 6 5 5 5 5 5 4 3 4 6 5 6 5 5 7 9 8 8 8 8 8 8 8 7
8 8 8 7 7 6 6 6 5 4 3 2 2 1 1 2 4 5 5 6 5 5 5 5 5 4 4 5 6 6 5 4 4 5 5 6 8 9 8 8 8 7 7
7 8 7 7 8 7 8 9 6 4 4 3 3 3 3 3 3 2 2 4 5 5 4 4 5 5 5 5 5 5 6 5 3 3 4 4 5 4 5 7 7 7 7
7 8 8 8 8 7 11 12 9 5 4 4 3 3 2 2 2 1 1 1 2 4 5 5 5 5 6 6 5 6 6 6 4 4 4 3 3 3 3 3 6 7 7
7 7 7 7 7 9 12 11 10 6 4 4 4 3 3 2 1 1 3 4 3 2 3 4 5 5 5 6 7 7 7 6 4 6 5 4 3 3 3 4 7 7 7
6 6 6 7 6 8 12 12 11 6 4 4 4 4 3 2 3 3 0 1 2 2 2 4 3 3 3 5 7 7 6 6 6 5 4 4 3 3 3 4 7 7 7
6 5 5 6 6 6 10 11 11 4 3 3 3 4 4 3 4 4 1 1 2 3 4 3 3 3 4 5 6 6 7 7 5 3 2 4 4 3 3 3 5 6 7
5 5 4 5 5 6 8 10 11 4 3 3 3 3 5 6 5 5 1 1 2 2 3 5 5 6 6 7 6 6 7 7 6 4 4 4 5 4 3 2 3 4 5
Wind_Direction
258 251 252 250 248 244 236 235 236 231 234 240 241 241 235 225 229 219 173 165 204 221 218 207 201 197 193 188 178 170 164 160 159 158 154 149 145 143 142 138 135 133 129
262 257 253 250 249 251 251 244 240 237 237 239 241 238 244 236 234 223 219 180 192 210 218 215 207 201 196 193 188 179 173 168 166 165 161 158 154 151 147 147 145 142 139
269 264 259 252 247 245 245 245 244 238 233 232 234 236 233 238 239 229 218 220 195 192 205 213 210 206 201 198 194 185 179 174 174 172 169 165 161 158 157 157 155 152 150
273 272 263 258 252 247 240 236 233 227 226 225 230 226 226 221 232 234 223 215 215 199 188 194 203 208 206 202 200 191 184 180 180 179 176 173 169 168 168 169 171 169 168
275 269 265 264 259 249 241 239 229 222 226 220 225 231 236 229 227 225 228 223 208 208 201 169 189 201 205 205 203 198 192 189 188 186 182 181 178 178 179 179 182 182 183
281 276 264 257 253 247 242 238 238 226 226 218 226 231 235 238 231 229 234 229 221 210 211 189 189 192 199 204 204 203 199 197 194 193 190 189 187 187 188 190 191 192 195
287 277 271 262 250 245 242 240 236 230 220 208 211 227 238 243 240 224 231 232 224 217 210 203 208 196 187 196 203 207 205 203 200 200 198 195 193 194 197 199 200 203 205
297 282 274 268 255 251 245 239 231 230 216 198 199 199 225 227 231 230 222 230 232 211 218 215 207 203 207 188 184 196 206 206 205 205 204 201 199 200 202 203 206 208 210
307 293 286 280 270 257 250 244 235 231 225 209 207 199 204 218 215 217 219 219 226 222 215 221 217 207 206 206 181 183 194 202 208 209 209 207 205 204 206 207 210 211 213
326 312 294 282 274 266 258 249 238 236 231 220 212 219 226 214 213 215 214 220 218 217 220 216 221 220 209 209 195 173 181 197 208 213 213 211 209 207 208 210 212 213 213
334 328 314 297 287 275 266 259 252 240 233 226 212 203 210 217 231 225 212 212 215 218 218 219 215 217 214 212 204 185 177 192 203 212 215 213 210 208 209 210 211 213 213
334 335 324 310 299 289 278 268 255 244 238 233 225 213 204 204 208 214 222 216 215 215 215 218 220 213 211 211 206 166 175 190 198 204 210 213 211 209 208 209 211 214 213
338 337 329 319 311 300 286 274 260 248 240 235 230 225 220 221 210 209 215 219 220 214 212 215 216 212 208 208 197 165 180 190 197 200 203 206 207 210 208 210 211 210 211
336 334 329 323 316 308 295 282 268 256 245 236 232 230 228 224 215 210 210 207 209 213 215 212 209 213 210 206 187 177 184 187 194 196 197 198 198 199 199 205 209 210 212
338 340 336 334 327 317 309 300 281 269 261 246 237 231 231 227 218 213 210 209 208 216 218 208 199 207 204 203 172 191 198 178 189 191 190 190 190 190 190 191 192 194 199
350 346 345 341 337 332 324 317 303 289 268 257 244 237 232 227 218 210 209 212 217 223 228 206 200 194 195 200 188 202 199 164 180 185 187 186 186 185 186 184 182 183 185
352 351 349 347 347 345 339 331 317 307 290 270 250 236 232 227 218 208 203 206 210 214 226 214 193 194 192 198 182 198 193 184 175 175 179 180 179 178 177 178 177 176 176
354 354 353 355 355 351 347 345 338 331 319 299 269 241 231 223 217 211 207 206 204 209 215 210 189 190 199 193 185 186 186 181 174 159 167 168 168 169 169 168 168 168 171
356 358 1 2 357 353 355 353 349 345 344 328 300 260 241 227 219 210 208 204 198 201 207 202 186 181 188 182 176 175 173 163 165 149 153 155 154 158 160 162 162 163 166
357 2 4 2 1 360 0 358 358 359 2 1 346 324 284 243 235 220 207 202 196 197 200 198 185 178 178 177 174 167 164 153 155 145 138 139 141 146 150 154 159 163 164
359 5 6 6 8 8 8 359 354 356 4 10 11 25 29 18 2 300 243 206 195 192 192 193 187 180 177 176 178 168 160 144 135 141 134 135 138 144 147 148 152 157 159
2 7 6 8 10 17 6 1 350 352 0 8 10 16 48 74 82 154 211 248 226 207 196 196 195 192 190 182 171 168 158 157 153 153 141 125 129 132 131 132 132 140 142
4 4 5 6 9 19 9 6 355 342 8 13 9 13 22 36 348 119 156 179 169 181 233 229 207 203 191 182 177 174 173 167 148 149 139 124 126 116 102 103 120 131 136
1 358 360 1 4 16 9 4 344 342 12 18 11 5 6 22 18 360 11 157 148 144 199 222 215 199 183 178 177 171 155 134 116 131 140 126 132 116 109 105 109 118 125
351 350 357 354 354 13 13 359 343 358 9 23 24 21 6 22 32 342 306 140 133 117 99 86 85 114 119 142 153 153 153 150 140 140 149 132 135 125 120 117 110 113 119
338 338 348 347 350 1 14 359 343 347 5 17 26 43 40 19 18 345 305 128 127 120 135 140 136 141 144 144 160 171 165 161 147 147 161 144 146 148 138 134 138 145 131